Flag Weather past 2 weeks in Venice, Italy

Now
57 °F

Clear.


Feels Like: 57 °F
Forecast: 49 / 64 °F
Wind: No wind

Location: Venice / Tessera

Current Time: Oct 31, 2014 at 6:24:34 PM

Latest Report: Oct 31, 2014 at 5:50 PM


Visibility: 10 mi

Pressure: 30.27 "Hg

Humidity: 67%

Dew point: 46 °F

Location of VeniceLocation

Historic Weather in Venice — Graph

°F

Venice temperature yesterday

Maximum temperature yesterday: 64 °F (at 2:20 PM)
Minimum temperature yesterday: 41 °F (at 6:20 AM)
Average temperature yesterday: 51 °F

Past Weeks' High & Low Weather Summary

 TemperatureHumidityPressure
High75 °F (Oct 17, 3:20 PM)100% (Oct 17, 7:20 AM)30.36 "Hg (Oct 17, 7:20 AM)
Low41 °F (Oct 29, 4:50 AM)19% (Oct 22, 3:20 PM)29.47 "Hg (Oct 22, 2:20 AM)
Average59 °F72%30.07 "Hg
* Reported Oct 16 6:20 PM — Oct 31 5:20 PM, Venice, Weather by CustomWeather, © 2014

Note: Actual official high and low records may vary slightly from our data, if they occured in-between our weather recording intervals... More about our weather records

Advertising

Venice weather history for previous 24 hours

 ConditionsComfort  
Time TempWeatherWind HumidityBarometerVisibility
5:20 PM
Oct 31
57 °FClear.No wind59%30.27 "Hg10 mi
4:50 PM61 °FSunny.No wind59%30.27 "Hg10 mi
4:20 PM63 °FSunny.No wind52%30.27 "Hg10 mi
3:50 PM64 °FSunny.No wind52%30.27 "Hg10 mi
3:20 PM63 °FSunny.2 mph49%30.27 "Hg10 mi
2:50 PM63 °FSunny.2 mph52%30.27 "Hg10 mi
2:20 PM63 °FSunny.2 mph49%30.27 "Hg10 mi
1:50 PM63 °FSunny.3 mph52%30.27 "Hg10 mi
1:20 PM63 °FSunny.3 mph52%30.30 "Hg10 mi
12:50 PM61 °FSunny.3 mph55%30.30 "Hg10 mi
12:20 PM61 °FSunny.3 mph52%30.30 "Hg10 mi
11:20 AM59 °FSunny.5 mph55%30.30 "Hg10 mi
10:50 AM57 °FSunny.6 mph59%30.33 "Hg10 mi
10:20 AM55 °FSunny.7 mph63%30.33 "Hg10 mi
9:50 AM54 °FSunny.9 mph63%30.33 "Hg10 mi
9:20 AM52 °FSunny.7 mph72%30.30 "Hg10 mi
8:50 AM50 °FSunny.7 mph71%30.30 "Hg10 mi
8:20 AM46 °FSunny.8 mph82%30.30 "Hg10 mi
7:50 AM46 °FSunny.9 mph76%30.30 "Hg10 mi
7:20 AM46 °FSunny.8 mph76%30.27 "Hg10 mi
6:50 AM46 °FSunny.9 mph76%30.30 "Hg10 mi
6:20 AM45 °FClear.9 mph81%30.27 "Hg10 mi
5:50 AM45 °FClear.9 mph81%30.27 "Hg10 mi
5:20 AM45 °FClear.7 mph81%30.27 "Hg10 mi
4:50 AM45 °FClear.6 mph87%30.27 "Hg10 mi
4:20 AM45 °FClear.5 mph87%30.27 "Hg10 mi
3:50 AM45 °FClear.6 mph87%30.27 "Hg10 mi
3:20 AM45 °FClear.7 mph87%30.27 "Hg10 mi
2:50 AM43 °FClear.5 mph93%30.27 "Hg10 mi
2:20 AM45 °FClear.6 mph87%30.30 "Hg10 mi
1:50 AM45 °FClear.7 mph87%30.27 "Hg6 mi
1:20 AM45 °FClear.5 mph87%30.27 "Hg5 mi
12:50 AM45 °FClear.1 mph87%30.27 "Hg5 mi
12:20 AM46 °FClear.1 mph87%30.27 "Hg5 mi
11:50 PM
Oct 30
48 °FClear.5 mph82%30.27 "Hg5 mi
11:20 PM48 °FClear.1 mph82%30.27 "Hg4 mi
10:50 PM48 °FClear.3 mph87%30.27 "Hg4 mi
10:20 PM48 °FClear.3 mph87%30.27 "Hg4 mi
9:50 PM48 °FClear.3 mph87%30.27 "Hg5 mi
9:20 PM50 °FClear.3 mph82%30.27 "Hg5 mi
8:50 PM50 °FClear.3 mph82%30.24 "Hg5 mi
8:20 PM50 °FClear.3 mph82%30.24 "Hg5 mi
7:50 PM50 °FClear.3 mph82%30.24 "Hg6 mi
7:20 PM50 °FClear.3 mph82%30.24 "Hg10 mi
6:50 PM54 °FClear.2 mph72%30.24 "Hg10 mi
6:20 PM54 °FClear.1 mph67%30.24 "Hg10 mi
Weather by CustomWeather, © 2014

See weather overviewHow to use our weather pages